HAIYANG 1B

Satellite information

Favourite Embed

Satellite Type and Status

PAYLOADIN ORBIT

Key statistics

Satellite HAIYANG 1B at a glance.

Uptime

6725

Days in orbit

Revolutions

≈ 14.3

Per day

Orbit

SSO

Sun Synchronous Orbit

Inclination

98.3

Latest

Satellite identification and parameters

Extended collection of information and parameters for HAIYANG 1B.

Object identification

Identified? True

Debris? False

Object name: HAIYANG 1B

International designator: 2007-010A

Object number (NORAD): 31113

Object ID (CCSDS): 31113

Country: PEOPLES REPUBLIC OF CHINA (PRC)

Current information (Y/N): Y

RCS size: LARGE

Orbital parameters

Period: 100.635 minutes

Inclination: 98.3218 deg

SMA: 7166.798 km

Apoapsis: 797.869 km

Periapsis: 779.457 km

RAAN: 238.271 deg

Eccentricy: 0.00128454

Argument of periapsis: 326.0333 deg

Mean anomaly: 34.0027 deg

Mean motion: 14.30918913 rev/day

Mean motion (dot): 0.00000198 rev/day2

B* drag term: 0.000091115726 1/REarth

Two-line elements (TLE)

Creation date: Sept. 7, 2025, 3:09 a.m.

Reference frame: TEME

Reference center: EARTH

Epoch: Sept. 6, 2025, 11 p.m. UTC

TLE line 0: 0 HAIYANG 1B

TLE line 1: 1 31113U 07010A 25249.95893739 .00000198 00000-0 91116-4 0 9992

TLE line 2: 2 31113 98.3218 238.2710 0012845 326.0333 34.0027 14.30918913960128

Live tracking on map

Real-time ground track for satellite HAIYANG 1B.

In-orbit conjunctions

There are no conjunctions computed for HAIYANG 1B, at the moment. Check back to stay up to date, as we update our databases every day.

Go to all conjunctions

Associated space launch

Chinese oceanography satellite

HAIYANG 1B was lifted into orbit during the mission ‘Long March 2C | Hai Yang 1B’, on board a Long March 2 space rocket.

The launch took place on April 11, 2007, 3:27 a.m. from Launch Complex 7.

For more information about the launch, click the button.

Launch to space Long March 2C | Hai Yang 1B
Long March 2C | Hai Yang 1B

Agency: N/A

Status: Launch Successful

Launch date: April 11, 2007, 3:27 a.m. UTC

Rocket: Long March 2

Launch pad: Launch Complex 7

Location: Taiyuan Satellite Launch Center, People's Republic of China

...

Latest news about this satellite

There are no fresh news available about this satellite. Check back as we update our databases every day.


Newsletter sign-up

Weekly statistics, charts and insights to help you stay on top of the space industry.